Regional Weather Roundup
Issued by NWS

Home | Current Version | Previous Version | Graphics & Text | Print | Product List | Glossary On
Versions: 1 2 3 4 5 6 7 8 9 10 11 12 13 14 15 16 17 18 19 20 21 22 23 24 25 26 27 28 29 30 31 32 33 34 35 36 37 38 39 40 41 42 43 44 45 46 47 48 49 50
357
ASUS43 KMKX 282000
RWRWI

WISCONSIN REGIONAL WEATHER ROUNDUP
NATIONAL WEATHER SERVICE MILWAUKEE/SULLIVAN WI
300 PM CDT TUE MAR 28 2017

NOTE: "FAIR" INDICATES FEW OR NO CLOUDS BELOW 12,000 FEET WITH NO
SIGNIFICANT WEATHER AND/OR OBSTRUCTIONS TO VISIBILITY.

WIZ001-002-006>008-014>016-023>028-282100-
NORTHWEST WISCONSIN

CITY           SKY/WX    TMP DP  RH WIND       PRES   REMARKS
SUPERIOR ARPT  MOSUNNY   59  33  37 E5        30.16S
ASHLAND        MOSUNNY   60  28  29 VRB3      30.16S
HAYWARD        SUNNY     62  16  16 N3        30.14F
SIREN          SUNNY     62  20  20 CALM      30.15S
CUMBERLAND     SUNNY     55  28  35 SW3       30.15F
RICE LAKE      SUNNY     58  28  32 CALM      30.16F
CHETEK         SUNNY     58  25  27 CALM      30.15F
LADYSMITH      SUNNY     58  28  31 SW3       30.17S
EAU CLAIRE     NOT AVBL
MENOMONIE      SUNNY     57  34  41 SE3       30.14F
NEW RICHMOND   SUNNY     60  32  35 CALM      30.16S
OSCEOLA        MOSUNNY   61  28  29 E3        30.18S
$$

WIZ003>005-009-010-017-018-282100-
NORTH CENTRAL WISCONSIN

CITY           SKY/WX    TMP DP  RH WIND       PRES   REMARKS
MANITOWISH WTR SUNNY     56  27  32 NE7       30.14F
ARBOR VITAE    SUNNY     57  28  33 NE6       30.14F
WOODRUFF       SUNNY     57  28  33 NE6       30.14F
RHINELANDER    SUNNY     57  27  31 NE5       30.15S
EAGLE RIVER    SUNNY     55  25  32 CALM      30.14F
LAND O LAKES   SUNNY     58  25  28 W6        30.15F
PHILLIPS       SUNNY     57  24  27 SE7       30.14S
TOMAHAWK       SUNNY     57  24  28 CALM      30.15S
MEDFORD        SUNNY     52  35  52 S5        30.15S
MERRILL        SUNNY     56  32  40 SW5       30.15S
$$

WIZ029-030-035-036-043>047-282100-
CENTRAL WISCONSIN

CITY           SKY/WX    TMP DP  RH WIND       PRES   REMARKS
WAUSAU         SUNNY     57  30  35 CALM      30.13F
MOSINEE        NOT AVBL
MARSHFIELD     SUNNY     53  38  56 SE9       30.14F
STEVENS POINT  SUNNY     55  32  42 E5        30.16S
WAUPACA        SUNNY     58  30  34 NE8       30.16S
WAUTOMA        SUNNY     57  31  37 N8        30.15S
WISC RAPIDS    SUNNY     58  34  40 VRB7      30.16S
CAMP DOUGLAS   NOT AVBL
$$

WIZ011>013-019>022-031-037>040-048>050-282100-
NORTHEAST WISCONSIN

CITY           SKY/WX    TMP DP  RH WIND       PRES   REMARKS
ANTIGO         SUNNY     55  33  44 SE3       30.15S
SHAWANO        SUNNY     57  33  40 E9        30.17R
OCONTO         SUNNY     40  33  76 E5        30.19R
STURGEON BAY   SUNNY     44  37  76 NW6       30.20R
GREEN BAY      SUNNY     47  37  68 NE12      30.18S
MANITOWOC      NOT AVBL
APPLETON       MOSUNNY   54  34  47 NE7       30.14F
CLINTONVILLE   SUNNY     55  28  35 E7        30.16S
OSHKOSH        SUNNY     51  37  58 NE13      30.15S
$$

WIZ032>034-041-042-053>061-282100-
SOUTHWEST WISCONSIN

CITY           SKY/WX    TMP DP  RH WIND       PRES   REMARKS
LA CROSSE      SUNNY     58  40  51 W10       30.14F
SPARTA         SUNNY     57  35  43 S3        30.15F
VIROQUA        SUNNY     56  36  46 CALM      30.14R
BOSCOBEL       SUNNY     58  37  45 VRB7      30.15F
PRAIRIE DU CHI CLOUDY    52  38  58 E7        30.15S
PLATTEVILLE    CLOUDY    46  41  81 SE5       30.16S
$$

WIZ056-057-062-063-064-067-068-282100-
SOUTH CENTRAL WISCONSIN

CITY           SKY/WX    TMP DP  RH WIND       PRES   REMARKS
REEDSBURG      SUNNY     55  37  51 E3        30.14S
BARABOO/DELLS  SUNNY     55  36  47 NE3       30.14S
LONE ROCK      NOT AVBL
MINERAL POINT  MOSUNNY   52  41  66 E6        30.14S
MADISON        MOSUNNY   55  38  52 NE8       30.13F
MIDDLETON      MOSUNNY   56  40  55 E6        30.13F
WATERTOWN      SUNNY     54  37  53 NE9       30.12F
MONROE         CLOUDY    52  37  58 E5        30.13S
JANESVILLE     PTSUNNY   57  39  51 VRB7      30.12F
$$

WIZ051-052-058>065-066-070>072-282100-
SOUTHEAST WISCONSIN

CITY           SKY/WX    TMP DP  RH WIND       PRES   REMARKS
MILWAUKEE      MOSUNNY   43  36  76 NE9       30.16S
WAUKESHA       SUNNY     52  37  58 NE6       30.14S
MILWAUKEE/TIMM SUNNY     46  36  66 E8        30.16R
RACINE         CLOUDY    42  35  76 NE12      30.17S
KENOSHA        MOSUNNY   47  37  68 NE15      30.14S
FOND DU LAC    SUNNY     52  38  58 N13       30.15F
SHEBOYGAN      CLOUDY    39  36  89 NE14      30.17R WCI  31
WEST BEND      SUNNY     54  37  54 NE10G17   30.13S
JUNEAU         SUNNY     52  38  58 N7        30.15R
$$

LSZ147-162-282100-
LAKE SUPERIOR

STATION/POSITION TIME  TEMP    WIND        PRES    WAVE
                       AIR SEA DIR/SP/G            HT/PER
                 (UTC) (F)     (DEG/KT/KT) (MB)    (FT/S)
DEVILS ISLAND    1900   47     220/  3/  4 1022.4F
PORT WING        1940   46      30/  2/  3 1021.7F
SAXON HARBOR     1940   38     320/  3/  5 1021.7S
$$

LMZ867-665-643>646-282100-
LAKE MICHIGAN

STATION/POSITION TIME  TEMP    WIND        PRES    WAVE
                       AIR SEA DIR/SP/G            HT/PER
                 (UTC) (F)     (DEG/KT/KT) (MB)    (FT/S)
CHAMBERS ISLAND  1940   34      30/  3/  5 1021.7F
NORTHPORT PIER   1940   35        CALM     1022.4S
KEWAUNEE LAKESHO 1930   37      60/  4/  8 1021.9R
SHEBOYGAN LAKESH 1900   33      20/ 14/ 15 1022.1S
PORT WASHINGTON  1940   36      50/ 11/ 15 1022.4R
MILWAUKEE LAKESH 1730   36      40/ 12/ 13   N/A
KENOSHA   LAKESH 1900   37      30/ 16/ 19 1021.0
$$

TC  - TEMPERATURE IN CELSIUS
VSB - VISIBILITY IN STATUTE MILES
WCI - WIND CHILL INDEX
HX  - HEAT INDEX





USA.gov is the U.S. government's official web portal to all federal, state and local government web resources and services.